Погода в Дербенте

Погода в Дербенте : погода сейчас, прогноз погоды и архив. Всё, что Вы хотите узнать о погоде в Дербенте!

Поиск расширенной информации на нашем сайте:

Другие новости

Новости СМИ2

Главная страница сайта

Новости сайта

03.07.2017

Напоминаем, что на нашем специализированном сайте Метеоцентр.Азия вы можете получить высокодетализированные автоматические прогнозы погоды по пунктам России, СНГ и мира в авиационном формате (включающие направление и скорость ветра, видимость, явления погоды, количество и форму облачности, нижнюю и верхнюю границу облачности).


Погода в Дербенте - сегодня

Время (UTC), дата Ветер
(°,м/с) 
Видим.   Явления Облачность Т
(°С)
Тd
(°С)
f(%) Тe
(°С)
Pmin
(гПа)
dP
(гПа)
Po
(мм)
O2
(г/м3)
Тmin Tmax R s Состояние
почвы
21 12.02.18 340 (С) 10 км    10/10 300 м 
[St]
+5.1 +3.5 89 +6  1013.8  0.7  762  301           
00 13.02.18 310 (СЗ) 10 км    10/10 300 м 
[St]
+4.8 +3 88 +4  1014.7  0.8  763  302           
06 13.02.18 330 (СЗ) 20000 м    10/10 600 м 
[Sc]
+5.5 +3 84 +5  1017  1.6  764  301           
09 13.02.18 тихо ()   20000 м    10/10 600 м 
[Sc]
+4.8 +2.7 86 +5  1016.8  -0.2  764  302           
12 13.02.18 100 (В) 20000 м    10/10 600 м 
[Sc]
+4.9 +2.6 85 +6  1015.9  -0.9  764  302           
18 13.02.18 350 (С) 10 км    10/10 600 м 
[Sc]
+5.6 +2.7 82 +6  1018.8  1.6  766  302           
21 13.02.18 310 (СЗ) 4000 м  слаб. морось  10/10 300 м 
[St]
+4.3 +2.8 90 +4  1019.8  1.1  767  304           
09 14.02.18 360 (С) 4000 м  слаб. дождь  10/10 300 м 
[Frnb|Ns]
+3.7 +2.4 91 +3  1025.4  1.6  771  306           
18 14.02.18 тихо ()   10 км  {дождь}  10/10 600 м 
[Sc]
+3.5 +2.4 92 +4  1027.6  0.9  772  307           
21 14.02.18 110 (В) 10 км    10/10 600 м 
[Sc]
+3.4 +2.4 93 +4  1027.1  -0.5  772  307           
00 15.02.18 140 (ЮВ) 10 км    10/10 600 м 
[Sc]
+3.9 +2.5 91 +3  1026.9  -0.2  772  306           
06 15.02.18 180 (Ю) 20000 м    10/10 600 м 
[Sc]
+5.1 +0.9 74 +6  1029.1  1.7  774  306           
09 15.02.18 140 (ЮВ) 20000 м    10/10 600 м 
[Sc]
+5.7 +1.5 74 +5  1029.5  0.4  774  305           
12 15.02.18 050 (СВ) 20000 м    10/10 600 м 
[Sc]
+5.3 +2.3 81 +5  1030  0.5  774  306           
18 15.02.18 160 (Ю) 10 км    10/10 600 м 
[Sc]
+6 +3.8 86 +7  1032.2  0.7  776  305           
21 15.02.18 160 (Ю) 10 км    10/10 600 м 
[Sc]
+5.9 +3.5 85 +7  1031.8  -0.3  776  305           
00 16.02.18 130 (ЮВ) 10 км    10/10 600 м 
[Sc]
+5.3 +2.9 84 +5  1031.4  -0.5  775  306           
06 16.02.18 120 (ЮВ) 20000 м    10/10 600 м 
[Sc]
+4.9 +3.1 88 +5  1032.1  0.4  776  307  +4.2         
09 16.02.18 120 (ЮВ) 20000 м    10/10 300 м 
[St]
+4.8 +3.1 89 +6  1031.6  -0.5  775  307           
18 16.02.18 150 (ЮВ) 4000 м  слаб. ливневой дождь{морось}  10/10 300 м кучево-дожд. 
[Cb cap]
+4.7 +3.7 93 +6  1029.3  -1  774  306           
21 16.02.18 300 (СЗ) 10 км  {ливн. осадки}  10/10 300 м кучево-дожд. 
[Cb cap]
+5.3 +4.2 93 +4  1027.2  -2.1  772  305           
06 17.02.18 300 (СЗ) 20000 м  {ливн. осадки}  10/10 300 м кучево-дожд. 
[Cb cap]
+6 +4.4 89 +4  1024.1  -1.1  770  303           
09 17.02.18 120 (ЮВ) 20000 м    10/10 600 м 
[Sc]
+5.1 +3.8 91 +5  1022.2  -1.8  768  303           
12 17.02.18 160 (Ю) 20000 м    10/10 600 м 
[Sc]
+6.1 +3.9 86 +6  1021.5  -0.7  768  302           
18 17.02.18 310 (СЗ) 10 км    10/10 600 м 
[Sc]
+6.3 +4.1 86 +6  1020.6  -0.6  767  302           
Время (UTC), дата Ветер
(°,м/с) 
Видим.   Явления Облачность Т
(°С)
Тd
(°С)
f(%) Тe
(°С)
Pmin
(гПа)
dP
(гПа)
Po
(мм)
O2
(г/м3)
Тmin Tmax R s Состояние
почвы

Для получения пояснительной информации подведите курсор к названию столбца.

ПОГОДА в Дербенте - архив

Всё, что Вы хотите узнать о погоде в Дербенте - удобно и подробно!

Выберите нужную дату (начиная с 1 января 2015* года) и нажмите кнопку "Найти".
Будут отображены архивные сводки погоды по пункту Дербент, начиная с указанной даты.


Отображать данные в формате CSV (для использования в таблицах Excel)


Внимание! Наш архив погоды предназначен исключительно для личного некоммерческого использования в познавательных целях. Если Вам необходимы официальные справки о состоянии погоды (для производственных, юридических, коммерческих и т.п. целей), обращайтесь в органы Росгидромета.

*Примечание: данная дата относится к архиву по метеостанциям СССР (Россия, СНГ, Балтия).
Архив по метеостанциям Зарубежной Европы и Азии (кроме Китая) хранится 10 дней, по другим регионам земного шара (Китай, Африка, Америка, Австралия, Океания) - 1 день.

Дербент - район местоположения метеостанции


Название, широта, долгота, высота метеостанции:
Дербент 42.1°ш. 48.3°д. -19 м над ур. моря [Российская Федерация]

Дополнительная информация

В oтличие oт бoльшинства пoгoдных сайтoв мы публикуем пoдрoбную метеoинфoрмацию в детальнoм прoфессиoнальнoм фoрмате.

Характеристики температуры и влажнoсти вoздуха измеряются на высoте 2 м в тени вдали oт зданий и деревьев.
Скoрoсть ветра измеряется на высoте 10 м (на урoвне рoста челoвека скoрoсть ветра ниже в 1.5-2 раза). Если метеoстанция нахoдится в гoрoде или в лесу, тo скoрoсть ветра занижена на 2-4 м/с пo сравнению с oткрытым местoм. Скoрoсть ветра над акватoриями крупных рек и oзёр, а также на вершинах хoлмoв на 2-5 м/с выше, чем в oбычных услoвиях.
Атмoсфернoе давление в разных тoчках местнoсти мoжет значительнo oтличаться oт давления на метеoстанции, в зависимoсти oт услoвий рельефа (при пoдъёме на 10 м давление пoнижается примернo на 1 мм рт.ст.).